TimeAKST,TemperatureF,Dew PointF,Humidity,Sea Level PressureIn,VisibilityMPH,Wind Direction,Wind SpeedMPH,Gust SpeedMPH,PrecipitationIn,Events,Conditions,WindDirDegrees,DateUTC
12:53 AM,5.0,-2.0,73,29.73,10.0,NE,12.7,-,N/A,,Overcast,40,2013-02-07 09:53:00
1:53 AM,5.0,-2.0,73,29.71,10.0,NE,13.8,-,N/A,,Overcast,40,2013-02-07 10:53:00
3:53 AM,3.9,-4.0,70,29.67,10.0,NE,11.5,-,N/A,,Overcast,50,2013-02-07 12:53:00
4:53 AM,3.0,-4.0,73,29.66,10.0,NE,11.5,-,N/A,,Overcast,50,2013-02-07 13:53:00
5:12 AM,3.2,-4.0,72,29.63,10.0,NE,13.8,-,N/A,,Overcast,50,2013-02-07 14:12:00
5:53 AM,1.9,-5.1,72,29.63,10.0,NE,15.0,-,N/A,,Mostly Cloudy,40,2013-02-07 14:53:00
6:53 AM,1.9,-5.1,72,29.61,10.0,NNE,10.4,-,N/A,,Overcast,30,2013-02-07 15:53:00
7:25 AM,1.4,-5.8,72,29.58,10.0,NNE,9.2,-,N/A,,Partly Cloudy,30,2013-02-07 16:25:00
7:53 AM,3.0,-5.1,69,29.59,10.0,NE,12.7,-,N/A,,Clear,40,2013-02-07 16:53:00
8:53 AM,1.9,-5.1,72,29.57,10.0,NE,9.2,-,N/A,,Mostly Cloudy,50,2013-02-07 17:53:00
9:53 AM,3.0,-5.1,69,29.56,10.0,NNE,11.5,-,N/A,,Overcast,30,2013-02-07 18:53:00
10:53 AM,3.0,-5.1,69,29.54,10.0,NE,11.5,-,N/A,,Overcast,40,2013-02-07 19:53:00
11:53 AM,3.0,-5.1,69,29.52,10.0,NE,10.4,-,N/A,,Overcast,50,2013-02-07 20:53:00
12:53 PM,3.9,-4.0,70,29.51,10.0,NE,9.2,-,N/A,,Overcast,50,2013-02-07 21:53:00
1:53 PM,5.0,-4.0,66,29.49,10.0,NE,10.4,-,N/A,,Overcast,50,2013-02-07 22:53:00
2:35 PM,3.2,-4.0,72,29.46,3.0,NE,10.4,-,0.00,Snow,Light Snow,50,2013-02-07 23:35:00
2:53 PM,3.9,-2.9,73,29.47,7.0,NE,8.1,-,0.00,,Overcast,50,2013-02-07 23:53:00
3:53 PM,3.9,-4.0,70,29.45,3.0,NE,8.1,-,0.00,Snow,Light Snow,50,2013-02-08 00:53:00
4:19 PM,3.2,-4.0,72,29.43,2.5,ENE,9.2,-,0.00,Snow,Light Snow,60,2013-02-08 01:19:00
4:53 PM,3.9,-2.9,73,29.45,1.8,ENE,6.9,-,0.00,Snow,Light Snow,60,2013-02-08 01:53:00
5:53 PM,3.9,-2.0,76,29.45,1.5,ENE,8.1,-,0.00,Snow,Light Snow,60,2013-02-08 02:53:00
6:06 PM,3.2,-2.2,78,29.42,2.5,ENE,9.2,-,0.00,Snow,Light Snow,60,2013-02-08 03:06:00
6:40 PM,3.2,-2.2,78,29.43,3.0,ENE,8.1,-,0.00,Snow,Light Snow,60,2013-02-08 03:40:00
6:53 PM,3.0,-2.9,76,29.45,3.0,ENE,8.1,-,0.00,Snow,Light Snow,60,2013-02-08 03:53:00
7:53 PM,3.0,-2.9,76,29.45,6.0,ENE,8.1,-,0.00,Snow,Light Snow,60,2013-02-08 04:53:00
8:53 PM,3.0,-4.0,73,29.45,5.0,ENE,6.9,-,0.00,Snow,Light Snow,60,2013-02-08 05:53:00
9:53 PM,3.0,-2.9,76,29.45,3.0,ENE,9.2,-,0.00,Snow,Light Snow,60,2013-02-08 06:53:00
10:53 PM,3.9,-4.0,70,29.46,7.0,NE,11.5,-,0.00,Snow,Light Snow,50,2013-02-08 07:53:00
11:53 PM,3.9,-2.9,73,29.47,5.0,NE,10.4,-,0.00,Snow,Light Snow,50,2013-02-08 08:53:00